Theta_e
350 349 343 341 345 345 343 339 336 335 333 333 335 341 343 342 341 336 334 327 333 339 341 344 346 346 343 340 334 333 332 331 334 339 337 338 340 344 346 346 348 346 342
349 348 342 343 345 344 343 340 337 334 336 333 342 345 346 345 346 343 344 344 342 341 341 341 346 346 347 344 335 332 332 333 338 345 345 341 342 343 344 343 345 343 341
347 346 343 341 345 342 335 334 340 342 337 338 344 345 345 345 344 343 343 344 345 346 347 344 342 346 346 342 338 337 336 336 337 341 342 344 342 343 345 346 342 340 340
344 343 343 340 341 325 325 336 340 338 335 341 346 344 343 342 338 336 336 338 340 340 343 345 342 342 342 336 336 336 335 337 338 342 343 343 343 343 344 341 339 339 340
340 342 342 340 334 324 325 330 330 332 332 337 340 342 344 338 335 334 332 332 335 337 338 338 342 339 337 336 335 335 336 338 341 343 343 340 337 339 342 347 344 343 345
341 345 340 337 330 322 329 329 331 330 333 336 340 341 340 335 332 330 328 333 338 339 340 335 333 334 336 335 333 335 340 340 340 342 342 342 337 338 339 339 341 340 340
343 343 342 334 325 324 333 331 333 333 336 337 338 337 335 331 329 328 333 339 337 337 334 332 331 332 331 331 331 335 339 339 342 341 341 340 335 338 338 337 339 340 339
343 340 342 329 323 325 334 330 330 332 334 334 334 333 332 327 327 330 331 331 331 332 333 331 329 329 331 331 335 336 337 340 339 342 341 334 334 338 340 339 339 339 338
337 340 339 338 326 326 332 329 331 332 334 332 331 330 328 325 327 328 328 328 328 329 330 332 334 334 333 332 333 334 337 336 337 339 341 340 336 335 338 336 338 340 340
336 337 336 337 337 337 334 328 330 331 331 330 329 328 326 326 330 331 331 329 328 327 327 329 329 328 329 327 325 326 331 333 338 339 336 336 336 340 339 338 337 339 340
337 334 334 335 335 334 335 331 329 329 329 329 330 329 328 337 338 337 335 330 330 328 327 326 329 328 328 325 327 330 331 335 338 337 330 332 336 340 339 338 336 338 338
335 335 334 333 334 333 335 333 337 336 333 335 336 336 339 341 339 337 333 331 330 331 331 327 329 332 333 335 332 332 333 329 335 333 321 325 331 336 339 338 337 338 337
335 335 334 333 333 333 335 331 336 337 337 339 339 340 342 342 338 339 338 335 334 336 336 334 330 332 337 338 336 328 328 327 333 331 317 316 318 329 333 334 336 336 336
334 334 335 334 333 334 335 333 336 338 338 340 341 341 343 341 342 341 341 340 339 340 339 335 335 334 334 332 330 330 329 328 330 331 324 313 314 323 334 333 335 336 335
334 335 336 335 334 334 336 334 335 335 337 338 340 341 342 341 342 341 342 341 336 336 336 333 336 336 334 333 332 330 331 330 329 332 329 323 311 316 329 334 336 336 335
333 334 336 337 335 335 335 335 335 334 335 337 339 342 341 345 342 343 342 339 340 334 336 336 334 335 333 333 335 332 331 332 331 332 332 329 325 313 310 325 330 334 334
333 334 335 338 337 337 336 337 336 336 336 337 340 344 343 344 345 343 342 340 341 337 334 333 335 334 334 335 334 332 333 332 331 332 332 332 330 327 321 311 319 327 331
333 335 335 336 339 338 337 337 338 338 336 339 341 343 344 345 344 345 342 339 341 335 337 337 336 336 335 334 336 334 333 333 332 333 332 332 332 332 329 325 316 317 327
335 337 335 336 340 341 340 338 338 339 338 339 340 342 344 345 344 344 341 342 340 336 338 338 337 336 335 335 332 335 333 333 333 333 332 332 331 332 332 329 327 320 319
337 340 338 336 337 340 341 339 341 339 340 340 341 342 344 346 344 344 339 342 342 336 339 338 338 338 338 336 336 335 335 334 333 333 333 333 332 332 332 332 331 330 325
340 344 343 339 336 343 345 344 344 342 341 341 341 341 343 345 345 344 341 342 340 337 340 341 341 339 337 338 336 335 335 334 333 334 335 335 333 333 331 332 332 332 332
345 343 348 346 342 348 347 347 346 344 343 341 341 341 340 343 345 346 343 339 344 340 342 340 340 339 341 339 338 337 338 338 336 336 336 334 334 333 333 332 331 332 331
345 348 347 350 351 344 348 348 348 348 345 347 344 342 342 342 344 345 346 340 342 343 340 341 341 342 340 339 337 335 338 339 337 337 337 335 336 335 333 333 332 332 331
346 348 350 349 352 354 346 350 349 348 349 347 349 346 346 345 346 346 346 345 343 341 343 340 340 341 340 339 339 338 339 338 338 339 336 337 335 336 335 336 335 334 333
344 347 351 353 352 356 355 351 351 350 348 349 348 349 349 344 340 346 348 345 346 345 342 342 342 342 340 339 337 338 337 337 336 337 338 336 334 335 335 335 334 333 334
344 345 352 354 357 355 358 354 353 351 350 350 351 349 348 348 346 347 348 346 345 344 343 340 338 339 336 334 336 336 336 336 337 336 336 335 333 332 328 326 332 334 333
Wind_Speed
21 19 14 14 13 12 10 10 9 10 11 11 11 13 13 14 14 13 12 10 9 8 8 8 8 8 9 9 10 10 10 11 11 12 13 12 13 12 13 12 10 12 12
24 19 15 14 14 12 11 10 11 12 11 12 14 14 13 11 12 12 12 11 10 9 8 8 8 9 9 9 9 8 8 10 10 10 11 13 11 11 12 13 12 12 11
24 19 16 15 14 12 11 11 12 11 11 12 13 12 11 13 12 11 11 11 11 9 8 7 7 8 7 7 7 7 7 7 7 7 5 3 10 11 11 11 11 10 10
21 20 16 16 13 12 12 12 11 11 11 11 11 10 11 11 11 11 11 11 11 10 9 8 7 6 6 6 6 4 4 5 4 6 7 13 11 10 10 11 10 11 10
23 19 16 16 14 13 13 12 11 10 11 10 10 11 11 11 11 11 11 10 10 9 9 8 7 7 6 6 6 6 6 8 8 9 10 10 11 9 8 11 10 9 10
21 17 18 16 14 13 13 12 11 11 9 10 9 10 10 10 10 10 10 11 10 9 9 8 8 7 7 4 4 5 10 11 15 18 15 13 10 9 7 7 6 6 8
24 18 17 16 15 14 13 12 11 11 9 9 9 9 10 10 10 10 12 12 11 10 9 7 7 6 4 4 3 5 7 6 3 12 17 11 12 8 7 6 6 7 8
21 19 17 16 15 14 13 13 12 11 11 10 10 10 10 11 11 10 11 11 11 10 9 8 6 5 4 4 5 7 3 6 12 11 12 13 11 10 8 6 6 6 7
22 19 17 15 15 14 13 13 12 11 10 10 10 10 10 11 12 10 10 9 9 8 9 8 8 7 6 5 5 5 6 6 8 14 12 13 11 9 7 6 6 5 6
23 19 17 16 15 13 13 13 11 11 11 10 10 10 10 11 12 10 9 8 8 7 6 6 7 6 5 5 4 3 1 3 16 15 12 12 11 10 8 7 7 6 7
23 22 20 17 15 16 13 13 12 11 10 9 8 8 9 6 7 7 6 4 5 5 4 4 4 5 5 3 4 2 7 4 14 11 10 10 12 11 9 8 8 8 9
19 22 24 21 17 21 16 14 11 9 8 7 5 7 5 11 8 5 4 3 5 3 3 5 4 5 5 3 3 6 9 5 14 13 12 7 8 9 9 9 8 8 8
17 18 25 22 19 23 21 16 17 14 15 9 11 9 10 7 7 7 7 7 6 3 6 5 6 7 8 11 11 6 3 5 14 10 10 3 5 6 7 8 9 10 10
17 16 18 21 16 10 21 13 21 20 17 13 10 9 5 4 5 5 15 7 11 9 6 3 8 2 2 6 6 10 7 9 9 7 10 5 3 5 6 7 9 10 10
18 17 12 22 17 13 8 13 14 13 13 9 12 10 10 7 6 3 4 7 3 5 0 2 4 2 1 4 6 3 6 3 2 4 6 8 5 3 3 4 5 6 8
22 20 17 20 18 16 11 9 11 9 12 10 9 12 9 4 6 4 5 7 3 2 2 7 7 3 1 5 2 2 4 5 3 5 1 4 6 4 4 8 7 6 5
22 25 20 17 24 19 17 11 10 11 10 12 10 10 8 6 5 4 4 7 4 6 3 4 2 3 5 10 10 7 9 8 4 4 2 5 3 3 3 5 9 10 10
19 29 24 21 22 23 20 17 14 14 14 14 13 13 13 12 10 7 8 6 7 5 4 8 2 7 5 5 4 6 6 9 6 5 6 5 6 6 5 6 5 9 12
18 29 27 23 25 24 21 19 18 15 15 14 14 14 16 15 14 13 10 11 9 6 5 5 6 6 6 6 11 12 9 8 5 7 12 9 6 8 8 8 5 6 10
24 27 27 25 21 27 23 21 18 16 15 16 14 16 17 16 13 15 11 11 7 7 9 8 8 4 5 10 12 5 7 9 9 10 9 8 10 12 12 13 10 10 12
30 25 30 28 27 30 26 24 20 21 18 17 18 18 16 16 15 17 14 15 14 12 9 3 3 8 8 11 9 13 17 17 15 16 11 13 15 17 15 15 17 12 16
30 33 30 31 30 28 27 24 23 20 22 22 23 23 21 16 16 14 15 14 15 13 11 9 8 11 11 15 8 11 4 4 22 17 14 12 16 16 15 19 20 19 16
30 33 34 33 33 35 26 25 21 18 21 20 26 26 21 21 19 19 17 16 13 8 6 12 11 10 12 13 8 10 4 2 5 12 15 16 12 21 15 16 14 20 21
29 33 34 36 33 33 36 25 26 22 17 21 16 20 22 19 17 23 24 17 18 13 11 12 13 14 13 14 6 13 10 7 2 3 6 9 19 13 14 14 17 13 22
36 33 37 35 35 30 31 31 27 23 23 19 23 18 14 20 33 26 21 21 16 16 17 12 12 12 12 12 12 13 13 8 8 6 3 9 13 10 15 16 20 21 23
39 38 36 35 34 34 31 36 28 28 24 19 17 15 12 13 19 20 19 16 18 18 17 16 14 12 11 12 13 15 11 6 5 5 3 8 11 16 16 19 10 14 15
Wind_Direction
125 131 138 134 125 118 111 105 103 96 92 89 85 81 76 73 69 69 69 73 73 74 73 76 79 80 77 70 71 71 68 65 66 63 61 66 74 74 64 65 94 83 88
127 133 140 130 120 117 112 109 104 97 96 93 89 83 72 78 69 71 65 65 69 74 78 86 94 89 80 80 75 72 70 78 80 74 66 69 74 77 79 78 88 89 92
125 130 134 136 124 120 113 106 99 96 95 97 91 83 81 86 77 75 74 73 70 69 77 85 96 92 86 89 88 84 82 74 65 75 63 43 66 73 77 78 82 88 91
129 134 134 133 128 124 118 112 107 103 99 101 93 97 90 85 84 80 76 73 67 67 75 87 99 107 102 93 76 67 69 44 26 43 84 96 78 70 74 79 85 91 91
131 134 145 138 132 125 126 122 116 109 112 113 105 103 96 91 84 79 74 68 64 65 72 85 102 111 108 91 71 64 62 59 18 44 108 104 75 75 77 84 79 89 106
133 134 144 144 134 133 132 127 124 118 112 110 105 101 94 86 83 75 67 63 58 61 66 86 101 114 116 94 71 78 86 78 63 81 92 76 84 69 72 94 111 107 109
130 135 142 147 140 139 138 136 131 124 123 118 111 106 102 94 82 75 71 67 65 64 62 74 97 108 110 95 85 122 114 99 61 104 94 81 75 74 72 84 100 111 117
128 141 146 149 146 146 149 146 140 138 134 129 123 118 110 100 92 85 78 70 65 67 69 70 78 104 110 101 108 145 142 57 90 89 82 76 76 69 56 64 77 106 122
135 145 152 155 153 153 156 154 146 143 138 136 131 126 120 110 104 97 83 68 60 62 70 81 79 86 99 103 117 133 137 126 106 111 85 78 77 77 75 75 87 111 118
144 150 157 161 158 156 162 157 153 151 148 147 140 140 135 128 112 107 88 74 67 66 66 80 89 95 102 100 103 129 172 348 123 110 90 87 80 71 71 75 83 115 118
153 155 162 163 165 164 160 165 159 161 158 158 152 159 167 140 140 125 139 83 74 72 78 97 120 130 125 128 113 7 315 285 113 97 81 86 87 73 74 86 97 112 124
165 162 162 164 172 172 160 174 161 169 170 168 189 215 220 194 171 164 174 145 124 129 92 126 174 180 188 251 300 335 313 42 107 90 78 91 92 94 89 88 97 119 133
175 163 160 166 177 170 162 160 177 189 192 205 221 233 258 202 179 241 222 243 224 202 205 226 194 238 259 271 247 17 36 35 113 101 67 81 124 135 122 115 121 126 130
173 169 161 160 182 171 161 157 191 187 194 203 195 225 196 204 224 297 220 212 261 240 226 343 205 88 11 336 34 23 44 36 53 86 66 49 104 134 135 140 133 136 146
174 164 169 160 177 204 170 174 199 193 179 210 181 210 225 202 217 268 296 205 264 120 184 87 114 129 84 287 39 77 14 68 81 146 85 57 62 99 99 89 99 142 156
167 171 184 163 178 194 206 187 210 191 189 202 206 195 208 165 197 228 278 246 280 144 81 51 73 33 275 247 298 148 271 11 60 42 19 100 74 80 147 173 166 160 173
168 170 186 179 179 188 201 212 192 208 207 196 214 180 189 226 220 261 263 271 232 180 256 222 113 275 253 251 225 232 213 209 238 191 280 216 131 134 101 178 193 188 190
186 167 176 191 183 187 197 203 204 213 206 206 208 207 204 211 221 223 246 295 185 188 226 217 147 269 274 297 241 255 217 194 194 223 236 198 250 210 216 194 182 201 203
195 166 176 192 183 189 192 200 207 218 209 217 209 220 205 202 222 211 240 256 203 211 246 202 259 217 280 273 262 224 218 241 234 258 215 207 231 259 264 226 227 229 216
188 175 178 192 200 189 188 200 211 221 213 222 224 221 210 204 219 216 220 233 175 226 257 220 225 242 289 297 298 329 221 208 219 239 217 224 245 243 243 242 239 244 242
183 183 180 189 202 184 183 192 209 206 211 217 230 231 223 213 225 223 211 252 217 220 247 167 236 260 250 246 258 284 258 237 225 228 231 239 240 236 233 241 242 254 246
187 186 183 188 199 190 190 196 204 207 211 212 220 226 223 223 229 237 224 235 218 209 222 212 228 252 268 266 202 324 306 186 216 213 227 234 239 238 237 236 234 239 246
195 186 189 191 196 202 197 202 211 213 220 218 216 222 213 217 224 234 233 222 236 226 238 224 219 231 256 287 193 182 258 285 27 216 232 226 229 241 235 248 254 240 234
203 196 195 195 200 199 200 200 204 212 218 224 227 220 204 204 244 227 229 222 228 235 229 223 222 228 240 268 286 229 271 315 9 326 348 253 251 242 264 272 263 270 250
198 201 199 196 199 203 201 204 204 204 216 226 226 222 199 212 226 228 221 217 222 228 230 225 220 222 240 266 286 303 285 274 278 246 295 303 317 286 265 262 265 255 267
195 200 192 195 196 202 204 205 210 204 209 214 220 196 186 186 220 228 237 235 235 233 232 237 244 236 241 268 280 299 288 281 279 255 265 292 306 296 312 312 307 274 270